Weather History for Taloyoak, NU

Change the Weather History Date:

Friday, June 14, 2013

  Actual Average Record
Temperature  
Mean Temperature 42 °F -  
Max Temperature 49 °F 45 °F 49 °F (2013)
Min Temperature 35 °F 34 °F 28 °F (2000)
Degree Days  
Heating Degree Days 23    
Moisture  
Dew Point 36 °F    
Average Humidity 73    
Maximum Humidity 93    
Minimum Humidity 57    
Precipitation  
Precipitation 0.00 in - - ()
Sea Level Pressure  
Sea Level Pressure 30.20 in    
Wind  
Wind Speed 3 mph ()    
Max Wind Speed 8 mph    
Max Gust Speed -    
Visibility 15.0 miles    
Events      
Averages and records for this station are not official NWS values.
T = Trace of Precipitation, MM = Missing Value Source: Averaged Metar Reports

Daily Weather History Graph

Daily Weather History Graph

Search for Another Location

Airport:

Trip Planner

Search our weather history database for the weather conditions in past years. The results will help you decide how hot, cold, wet, or windy it might be!

Date:

Astronomy

Dec. 31, 1969 Rise Set
Actual Time Sun does not rise Sun does not rise
Civil Twilight Sun does not rise Sun does not rise
Nautical Twilight Sun does not rise Sun does not rise
Astronomical Twilight Sun does not rise Sun does not rise
Moon 10:26 AM CDT (6/14) 12:57 AM CDT (6/14)
Length of Visible Light 24h 00m
Length of Day
24h 00m
Waxing Crescent, 30% of the Moon is Illuminated
Jun 14
Waxing Crescent
Jun 16
First Quarter
Jun 23
Full
Jun 29
Last Quarter
Jul 8
New

Hourly Weather History & Observations

Time (CDT) Temp. Windchill Dew Point Humidity Pressure Visibility Wind Dir Wind Speed Gust Speed Precip Events Conditions
12:00 AM 37.4 °F - 33.8 °F 87% 30.18 in 15.0 mi North 2.3 mph - N/A   Mostly Cloudy
1:00 AM 40 °F - 32 °F 63% 30.18 in 15 mi North 3.5 mph - -   Scattered Clouds
1:00 AM 39.2 °F 35.9 °F 32.0 °F 75% 30.18 in 15.0 mi North 4.6 mph - N/A   Mostly Cloudy
2:00 AM 37.4 °F 33.8 °F 33.8 °F 87% 30.19 in 15.0 mi NW 4.6 mph - N/A   Mostly Cloudy
3:00 AM 35.6 °F 29.2 °F 33.8 °F 93% 30.19 in 15.0 mi NNW 8.1 mph - N/A   Mostly Cloudy
4:00 AM 37.4 °F 32.1 °F 33.8 °F 87% 30.20 in 15.0 mi NNE 6.9 mph - N/A   Mostly Cloudy
5:00 AM 37.4 °F 32.8 °F 32.0 °F 81% 30.20 in 15.0 mi North 5.8 mph - N/A   Mostly Cloudy
6:00 AM 41.0 °F - 33.8 °F 76% 30.20 in 15.0 mi NNE 2.3 mph - N/A   Mostly Cloudy
7:00 AM 43 °F - 34 °F 61% 30.20 in 15 mi NNE 3.5 mph - -   Scattered Clouds
7:00 AM 42.8 °F 41.1 °F 33.8 °F 70% 30.20 in 15.0 mi NNE 3.5 mph - N/A   Scattered Clouds
8:00 AM 41.0 °F - 35.6 °F 81% 30.21 in 15.0 mi Calm Calm - N/A   Partly Cloudy
9:00 AM 42.8 °F - 37.4 °F 81% 30.21 in 15.0 mi South 2.3 mph - N/A   Partly Cloudy
10:00 AM 44.6 °F 43.1 °F 35.6 °F 71% 30.21 in 15.0 mi SW 3.5 mph - N/A   Partly Cloudy
11:00 AM 46.4 °F 44.3 °F 35.6 °F 66% 30.21 in 15.0 mi SSW 4.6 mph - N/A   Partly Cloudy
12:00 PM 46.4 °F 44.3 °F 35.6 °F 66% 30.21 in 15.0 mi SSW 4.6 mph - N/A   Partly Cloudy
1:00 PM 47 °F - 36 °F 57% 30.21 in 15 mi SSW 3.5 mph - -   Scattered Clouds
1:00 PM 46.4 °F 45.2 °F 37.4 °F 71% 30.21 in 15.0 mi SW 3.5 mph - N/A   Partly Cloudy
2:00 PM 48.2 °F - 37.4 °F 66% 30.20 in 15.0 mi SSW 4.6 mph - N/A   Scattered Clouds
3:00 PM 48.2 °F - 35.6 °F 62% 30.20 in 15.0 mi SSW 4.6 mph - N/A   Scattered Clouds
4:00 PM 46.4 °F 44.3 °F 37.4 °F 71% 30.20 in 15.0 mi SSW 4.6 mph - N/A   Partly Cloudy
5:00 PM 46.4 °F 44.3 °F 37.4 °F 71% 30.20 in 15.0 mi SSW 4.6 mph - N/A   Partly Cloudy
6:00 PM 46.4 °F 44.3 °F 39.2 °F 76% 30.20 in 15.0 mi SSW 4.6 mph - N/A   Partly Cloudy
7:00 PM 46 °F - 37 °F 63% 30.19 in 15 mi South 3.5 mph - -   Scattered Clouds
7:00 PM 46.4 °F 45.2 °F 37.4 °F 71% 30.19 in 15.0 mi South 3.5 mph - N/A   Partly Cloudy
8:00 PM 48.2 °F - 39.2 °F 71% 30.19 in 15.0 mi Calm Calm - N/A   Partly Cloudy
9:00 PM 46.4 °F - 37.4 °F 71% 30.19 in 15.0 mi SSE 2.3 mph - N/A   Partly Cloudy
10:00 PM 42.8 °F - 35.6 °F 76% 30.19 in 15.0 mi SE 2.3 mph - N/A   Partly Cloudy
11:00 PM 42.8 °F - 35.6 °F 76% 30.18 in 15.0 mi SSE 2.3 mph - N/A   Partly Cloudy